This is the latest recevied weather packets stored in our database for station/object W5DRO-13. If no packets are shown the sender has not sent any weather packets the latest 10 day(s).
| Time | Temp. | Humidity | Pressure | Rain* | Wind** | Luminosity | Snow |
|---|---|---|---|---|---|---|---|
| 1777684269 | 15.56° C | 60% | 1018.7 hPa | 0 mm | - | - | - |
| 1777683967 | 16.11° C | 58% | 1018.8 hPa | 0 mm | - | - | - |
| 1777683663 | 16.67° C | 57% | 1018.7 hPa | 0 mm | - | - | - |
| 1777683361 | 17.22° C | 54% | 1018.5 hPa | 0 mm | - | - | - |
| 1777683058 | 17.78° C | 53% | 1018.3 hPa | 0 mm | - | - | - |
| 1777682753 | 17.78° C | 51% | 1018.6 hPa | 0 mm | - | - | - |
| 1777682450 | 18.33° C | 48% | 1018.5 hPa | 0 mm | - | - | - |
| 1777682149 | 18.33° C | 48% | 1018.3 hPa | 0 mm | - | - | - |
| 1777681845 | 18.33° C | 46% | 1018.4 hPa | 0 mm | - | - | - |
| 1777681541 | 18.33° C | 43% | 1018.3 hPa | 0 mm | - | - | - |
| 1777681239 | 18.89° C | 43% | 1018.3 hPa | 0 mm | - | - | - |
| 1777680937 | 18.89° C | 44% | 1018.3 hPa | 0 mm | - | - | - |
| 1777680633 | 18.89° C | 42% | 1018.3 hPa | 0 mm | - | - | - |
| 1777680332 | 18.89° C | 42% | 1018.3 hPa | 0 mm | - | - | - |
| 1777680029 | 18.89° C | 40% | 1018.3 hPa | 0 mm | - | - | - |
| 1777679724 | 19.44° C | 42% | 1018.3 hPa | 0 mm | - | - | - |
| 1777679420 | 19.44° C | 40% | 1018.3 hPa | 0 mm | - | - | - |
| 1777679116 | 20° C | 39% | 1018.4 hPa | 0 mm | - | - | - |
| 1777678814 | 20° C | 40% | 1018.3 hPa | 0 mm | - | - | - |
| 1777678512 | 20° C | 37% | 1018.2 hPa | 0 mm | - | - | - |
| 1777678208 | 20° C | 37% | 1018.1 hPa | 0 mm | - | - | - |
| 1777677905 | 20° C | 36% | 1018.2 hPa | 0 mm | - | - | - |
| 1777677602 | 20° C | 35% | 1018 hPa | 0 mm | - | - | - |
| 1777677300 | 20° C | 38% | 1018.2 hPa | 0 mm | - | - | - |
| 1777676998 | 20° C | 37% | 1018.1 hPa | 0 mm | - | - | - |
* Rain latest hour (hover to see other rain measurements)
** Current wind speed in m/s (hover to see current wind gust speed)